Honolulu, HI

10:58 AM HST on June 27, 2017 (GMT -1000)
Honolulu International

Weather History for PHNL - April, 2013

Change the Weather History Date:

Monday, April 15, 2013

  Actual Average Record
Temperature  
Mean Temperature 74 °F 76 °F  
Max Temperature 77 °F 83 °F 87 °F (1996)
Min Temperature 70 °F 69 °F 63 °F (1959)
Degree Days  
Heating Degree Days 0 0  
Month to date heating degree days 0 0  
Since 1 July heating degree days 0 0  
Cooling Degree Days 9 11  
Month to date cooling degree days 149 165  
Year to date cooling degree days 904 940  
Growing Degree Days 24 (Base 50)    
Moisture  
Dew Point 70 °F    
Average Humidity 90    
Maximum Humidity 97    
Minimum Humidity 82    
Precipitation  
Precipitation 0.01 in 0.01 in 1.51 in (1963)
Month to date precipitation 0.78 0.41  
Year to date precipitation 6.80 6.73  
Snow  
Snow 0.00 in - - ()
Month to date snowfall 0.0  
Since 1 July snowfall 0.0  
Snow Depth 0.00 in    
Sea Level Pressure  
Sea Level Pressure 30.00 in    
Wind  
Wind Speed 3 mph (WNW)    
Max Wind Speed 14 mph    
Max Gust Speed 17 mph    
Visibility 10 miles    
Events Rain    
T = Trace of Precipitation, MM = Missing Value Source: NWS Daily Summary

Daily Weather History Graph

Daily Weather History Graph

Search for Another Location

Airport or City:

Trip Planner

Search our weather history database for the weather conditions in past years. The results will help you decide how hot, cold, wet, or windy it might be!

Date:

Astronomy

Apr. 15, 2013 Rise Set
Actual Time 6:12 AM HST 6:51 PM HST
Civil Twilight 5:49 AM HST 7:13 PM HST
Nautical Twilight 5:22 AM HST 7:40 PM HST
Astronomical Twilight 4:55 AM HST 8:07 PM HST
Moon 10:08 AM HST (4/15) 11:38 PM HST (4/15)
Length of Visible Light 13h 24m
Length of Day
12h 39m
Waxing Crescent, 26% of the Moon is Illuminated
Apr 15
Waxing Crescent
Apr 18
First Quarter
Apr 25
Full
May 2
Last Quarter
May 9
New

Hourly Weather History & Observations

Time (HST) Temp. Dew Point Humidity Pressure Visibility Wind Dir Wind Speed Gust Speed Precip Events Conditions
12:53 AM 71.1 °F 69.1 °F 93% 29.95 in 10.0 mi NNE 3.5 mph - 0.00 in   Overcast
1:53 AM 71.1 °F 70.0 °F 96% 29.94 in 10.0 mi Calm Calm - N/A   Overcast
2:53 AM 72.0 °F 70.0 °F 93% 29.94 in 10.0 mi Calm Calm - N/A   Overcast
3:53 AM 71.1 °F 69.4 °F 95% 29.93 in 10.0 mi Calm Calm - N/A   Mostly Cloudy
4:53 AM 71.1 °F 70.0 °F 96% 29.94 in 10.0 mi Calm Calm - N/A   Overcast
5:53 AM 70.0 °F 68.7 °F 96% 29.95 in 10.0 mi Calm Calm - N/A   Overcast
6:53 AM 71.1 °F 70.0 °F 96% 29.98 in 10.0 mi North 3.5 mph - N/A   Overcast
7:53 AM 73.9 °F 70.0 °F 87% 30.00 in 10.0 mi Calm Calm - N/A   Mostly Cloudy
8:53 AM 73.9 °F 71.1 °F 91% 30.02 in 10.0 mi Calm Calm - 0.00 in   Scattered Clouds
9:53 AM 75.9 °F 71.1 °F 85% 30.02 in 10.0 mi SE 5.8 mph - N/A   Mostly Cloudy
10:53 AM 73.0 °F 71.1 °F 93% 30.02 in 10.0 mi SSE 10.4 mph - 0.00 in   Overcast
11:53 AM 73.9 °F 69.1 °F 85% 30.03 in 8.0 mi South 3.5 mph - 0.00 in Rain Light Rain
12:29 PM 71.6 °F 71.6 °F 100% 30.02 in 4.0 mi SW 5.8 mph - 0.01 in Rain Light Rain
12:53 PM 73.0 °F 71.1 °F 93% 30.02 in 4.0 mi SW 5.8 mph - 0.01 in Rain Light Rain
1:53 PM 73.9 °F 70.0 °F 87% 30.00 in 10.0 mi WSW 9.2 mph - 0.00 in   Mostly Cloudy
2:53 PM 75.0 °F 69.1 °F 82% 29.99 in 10.0 mi WNW 4.6 mph - 0.00 in   Mostly Cloudy
3:53 PM 77.0 °F 69.1 °F 76% 29.99 in 10.0 mi NNW 5.8 mph - N/A   Mostly Cloudy
4:53 PM 77.0 °F 68.0 °F 74% 29.99 in 10.0 mi Calm Calm - N/A   Mostly Cloudy
5:53 PM 77.0 °F 68.0 °F 74% 30.00 in 10.0 mi Calm Calm - N/A   Mostly Cloudy
6:53 PM 77.0 °F 69.1 °F 76% 30.01 in 10.0 mi Calm Calm - N/A   Mostly Cloudy
7:53 PM 75.9 °F 69.1 °F 79% 30.03 in 10.0 mi Calm Calm - N/A   Scattered Clouds
8:53 PM 73.9 °F 70.0 °F 87% 30.04 in 10.0 mi Calm Calm - N/A   Scattered Clouds
9:53 PM 72.0 °F 69.1 °F 91% 30.05 in 10.0 mi ENE 3.5 mph - N/A   Scattered Clouds
10:53 PM 73.0 °F 69.1 °F 87% 30.04 in 10.0 mi NE 3.5 mph - N/A   Partly Cloudy
11:53 PM 71.1 °F 68.0 °F 90% 30.06 in 10.0 mi NW 6.9 mph - N/A   Scattered Clouds